Regional Weather Roundup
Issued by NWS Jackson, KY

Home | Current Version | Previous Version | Graphics & Text | Print | Product List | Glossary On
Versions: 1 2 3 4 5 6 7 8 9 10 11 12 13 14 15 16 17 18 19 20 21 22 23 24 25 26 27 28 29 30 31 32 33 34 35 36 37 38 39 40 41 42 43 44 45 46 47 48 49 50
000
ASUS43 KJKL 221105
RWRJKL

EAST KENTUCKY HOURLY WEATHER ROUNDUP
NATIONAL WEATHER SERVICE JACKSON KY
700 AM EDT WED OCT 22 2014

NOTE: "FAIR" INDICATES FEW OR NO CLOUDS BELOW 12,000 FEET WITH
NO SIGNIFICANT WEATHER AND/OR OBSTRUCTIONS TO VISIBILITY.

* THESE REPORTS ARE NOT UNDER NWS QUALITY CONTROL AND MAY NOT
  REPORT WEATHER SUCH AS PRECIPITATION AND FOG.

KYZ079-080-083-085-087-088-110-112-115-119-120-221200
...EASTERN KENTUCKY...

CITY           SKY/WX    TMP DP  RH WIND       PRES   REMARKS
JACKSON        CLOUDY    42  38  85 VRB3      30.18R
LONDON         MOCLDY    42  38  85 N3        30.19R
SOMERSET*      CLEAR     41  37  87 CALM      30.22R
MONTICELLO*    CLEAR     39  37  92 CALM      30.22R
WILLIAMSBURG*  CLEAR     41  39  93 CALM      30.19R
MIDDLESBORO*   CLOUDY    45  38  78 N3        30.17R
HARLAN APT*    CLOUDY    45  36  70 N5        30.16R
BLACK MTN*       N/A     32  32 100 N5          N/A  WCI  27
PIKEVILLE APT* CLOUDY    43  39  87 N5        30.16R
BIG SANDY*     CLOUDY    44  41  88 N3        30.18R
MOREHEAD APT*  CLOUDY    45  39  81 N7        30.22R
$$

KYZ035-036-041-042-044-050-067-078-099-221200
...CENTRAL KENTUCKY...

CITY           SKY/WX    TMP DP  RH WIND       PRES   REMARKS
MT STERLING*   CLOUDY    43  39  87 N6        30.22R
FLEMING/MASON* CLOUDY    44  40  83 N7        30.22R
DANVILLE*      CLEAR     36  36 100 N3        30.22R
RICHMOND*      CLEAR     39  37  93 CALM      30.20R
LEXINGTON      MOCLDY    44  38  79 N5        30.22R
FRANKFORT      MOCLDY    43  37  79 NW5       30.22R
$$

KYZ091>093-OHZ055-061-077-WVZ005-015-034-035-042-221200
...SOUTHERN OHIO/WEST VIRGINIA...

CITY           SKY/WX    TMP DP  RH WIND       PRES   REMARKS
COVINGTON      CLOUDY    45  37  73 N10G21    30.24R
COLUMBUS       CLOUDY    44  40  85 N13G21    30.20R
DAYTON         CLOUDY    43  39  86 N6        30.25R
WILMINGTON     CLOUDY    43  38  82 N14       30.22R
HUNTINGTON     CLOUDY    45  41  86 NW6       30.17R
CHARLESTON     LGT RAIN  45  42  89 NW9       30.14R FOG
PINEVILLE*     CLOUDY    45  44  96 MISG      30.16R
BECKLEY        CLOUDY    40  38  93 NW8G17    30.08R FOG     WCI  34
BLUEFIELD      CLOUDY    41  37  86 NW8       30.09R
$$

VAZ002-007-008-TNZ017-027-036-066-071-221200
...SOUTHWEST VIRGINIA/EAST TENNESSEE...

CITY           SKY/WX    TMP DP  RH WIND       PRES   REMARKS
WISE*          CLOUDY    41  39  93 NW7       30.14R
JONESVILLE*    CLOUDY    46  37  71 N5        30.18R
ABINGDON*      CLOUDY    45  36  72 CALM      30.12R
BRISTOL        CLOUDY    47  37  68 NW5       30.14R
KNOXVILLE      CLEAR     43  40  89 E3        30.15R
OAK RIDGE      CLEAR     42  39  89 CALM      30.17R
CROSSVILLE     PTCLDY    43  38  82 N7        30.17R
NASHVILLE      CLEAR     44  41  89 N5        30.20R
$$

...KEY TO REMARKS...
VSB - VISIBILITY IN MILES
WCI - WIND CHILL INDEX
HX  - HEAT INDEX

$$



USA.gov is the U.S. government's official web portal to all federal, state and local government web resources and services.